Regional Weather Roundup
Issued by NWS

Home | Current Version | Previous Version | Text Only | Print | Product List | Glossary On
Versions: 1 2 3 4 5 6 7 8 9 10 11 12 13 14 15 16 17 18 19 20 21 22 23 24 25 26 27 28 29 30 31 32 33 34 35 36 37 38 39 40 41 42 43 44 45 46 47 48 49 50
000
ASHW40 PHFO 012110
RWRHI

WEATHER ROUNDUP FOR HAWAII
NATIONAL WEATHER SERVICE HONOLULU HI
1100 AM HST WED APR 01 2015

THIS IS AN AUTOMATED REPORT THAT HAS NOT BEEN QUALITY CONTROLLED.

NOTE..."FAIR" INDICATES FEW OR NO CLOUDS BELOW 12,000 FEET WITH NO
SIGNIFICANT WEATHER AND/OR OBSTRUCTIONS TO VISIBILITY.

* - THESE SITES REPORT LIMITED FIELDS

HIZ001>004-012200-
KAUAI-NIIHAU-

CITY           SKY/WX    TMP DP  RH WIND       PRES   REMARKS
LIHUE APT      MOSUNNY   79  68  69 E13       30.05S
PORT ALLEN*      N/A     79 N/A N/A E13         N/A
POIPU*           N/A     81 N/A N/A E6G13       N/A
PRINCEVILLE*     N/A     75 N/A N/A MISG        N/A
KOKOLE POINT*  NOT AVBL
MOLOAA DAIRY*  NOT AVBL
WAIMEA HTS*    NOT AVBL
PUU OPAE*      NOT AVBL
PUU LUA*       NOT AVBL
MAKAHA RIDGE*  NOT AVBL
$$

HIZ005>011-012200-
OAHU-

CITY           SKY/WX    TMP DP  RH WIND       PRES   REMARKS
HONOLULU       MOSUNNY   78  64  61 E9G16     30.02S
KALAELOA       MOSUNNY   82  66  58 SE10G20   30.03F
KANEOHE MCB    MOSUNNY   79  69  71 E10G16    30.02S
WHEELER FIELD  FAIR      78  65  63 E12       30.04S
BELLOWS*       NOT AVBL
KAHUKU*        NOT AVBL
WHEELER*       NOT AVBL
WAIANAE HARBOR NOT AVBL
DILLINGHAM*      N/A     86  64  48 MISG        N/A
KAHUKU TRN*      N/A     70  59  68 E10G24      N/A
KAWAILOA*        N/A     75  63  64 E7G15       N/A
KII*             N/A     79  70  73 E17G23      N/A
MAKUA RANGE*     N/A     82  68  61 NW3         N/A
OAHU FOREST NW NOT AVBL
SCHOFIELD BRK*   N/A     63  50  63 MISG        N/A
SCHOFIELD S*   NOT AVBL
WAIANAE VLY*   NOT AVBL
KUAOKALA*      NOT AVBL
HONOULIUULI*   NOT AVBL
MOKUOLOE IS*   NOT AVBL
PALEHUA*       NOT AVBL
WAIAWA PHB*    NOT AVBL
$$

HIZ012>013-012200-
MOLOKAI-

CITY           SKY/WX    TMP DP  RH WIND       PRES   REMARKS
MOLOKAI AIRPT  MOSUNNY   81  66  60 NE9       30.03F
KALAUPAPA      NOT AVBL
MAKAPULAPAI*   NOT AVBL
MOLOKAI 1*     NOT AVBL
PUU ALII*      NOT AVBL
$$

HIZ016-012200-
KAHOOLAWE-

CITY           SKY/WX    TMP DP  RH WIND       PRES   REMARKS
KAHOOLAWE*     NOT AVBL
HAKIOAWA*      NOT AVBL
HONOKANAIA*      N/A     82  66  57 E18G33    30.03S
KANELOA*         N/A     79  68  69 MISG      29.26S
KEALIALALO*    NOT AVBL
LUA MAKIKA*    NOT AVBL
$$

HIZ014>015-012200-
LANAI-

CITY           SKY/WX    TMP DP  RH WIND       PRES   REMARKS
LANAI CITY     CLOUDY    72  65  78 SW7       30.07F
LANAI 1*       NOT AVBL
$$

HIZ017>028-012200-
MAUI-

CITY           SKY/WX    TMP DP  RH WIND       PRES   REMARKS
KAHULUI        MOSUNNY   85  64  49 NE17G24   30.01F
KAPALUA-W MAUI MOSUNNY   82  64  54 NE12G23   30.02F
HANA AIRPORT   PTSUNNY   79  68  69 E8        30.08F
HANA*          NOT AVBL
HALEAKALA SUMM   N/A     55  21  26 S5G18       N/A
MAALAEA BAY*   NOT AVBL
HALEAKALA*     NOT AVBL
KAUPO GAP*     NOT AVBL
KULA 1*          N/A     60  54  79 W3G9        N/A
$$

HIZ023>026-012200-
BIG ISLAND OF HAWAII COAST AND LOWER SLOPES-

CITY           SKY/WX    TMP DP  RH WIND       PRES   REMARKS
KAILUA KONA    SUNNY     83  63  50 W7        29.99S
HILO           MOSUNNY   79  65  62 MISG      30.06F
HONOKAA*       NOT AVBL
KAWAIHAE MWT*  NOT AVBL
KAWAIHAE*        N/A     81 N/A N/A W12         N/A
SOUTH POINT*   NOT AVBL
UPOLU AIRPORT* NOT AVBL
KAMUELA*       CLEAR     75  59  57 NE20      30.10S
HAKALAU*         N/A     55  50  82 E5G12       N/A
KALOKO-HONOKO* NOT AVBL
PALI 2*          N/A     75  55  50 NE14G24     N/A
KEALAKOMO*       N/A     82  66  57 E17G23      N/A
KAUPULEHU*     NOT AVBL
KAPAPALA*        N/A     77  62  58 E6G15       N/A
LOWER KAHUKU*  NOT AVBL
PUHE CS*       NOT AVBL
PUHO CS*       NOT AVBL
PTA KEAMUKU*     N/A     73  55  53 CALM        N/A
WAIKOLOA*      NOT AVBL
$$

HIZ027>028-012200-
BIG ISLAND OF HAWAII INTERIOR AND SUMMMITS-

CITY           SKY/WX    TMP DP  RH WIND       PRES   REMARKS
BRADSHAW FIELD MOSUNNY   65  45  48 S7G13     30.31S
MK VISITOR CEN NOT AVBL
MAUNA KEA*       N/A     41  21  45 SE2         N/A
MAUNA LOA*       N/A    N/A N/A N/A MISG        N/A
MAUNA LOA 1*   NOT AVBL
PTA KIPUKA*      N/A     70  46  43 NW5G12      N/A
PTA RANGE 17*    N/A     48  32  53 NW7G13      N/A
PTA WEST*        N/A     72  52  49 NW6G16      N/A
NENE CABIN*    NOT AVBL
AHUMOA*        NOT AVBL
PTA PORTABLE*  NOT AVBL
PUU MALI*        N/A     64  43  45 N7          N/A
$$

HIC003-012200-
NORTHWEST ISLANDS-

CITY           SKY/WX    TMP DP  RH WIND       PRES   REMARKS
MIDWAY ISLAND  SUNNY     73  64  73 W12       30.05R
MIDWAY NOS*    NOT AVBL
FRENCH FRIGATE NOT AVBL
$$

PHZ110>124-180-012200-
BUOY REPORTS

STATION/POSITION TIME  TEMP    WIND        PRES    WAVE   SWELL
                       AIR SEA DIR/SP/G            HT/PER HT/DIR
                 (UTC) (F)     (DEG/KT/KT) (MB)    (FT/S) (FT/D)
BUOY 51001       NOT AVBL
BUOY 51101       2100   72 71   90/ 14/ 16 1017.2R   7/11   7
BUOY 51100       NOT AVBL
BUOY 51003       2000   76 78   70/ 10/ 12 1016.4R   7/10   7
BUOY 51004       2022   77 77   60/ 17/ 21 1015.0R   8/ 8   5/100
BARBERS PT BUOY  NOT AVBL
WAIMEA BAY BUOY  NOT AVBL
KAILUA BAY BUOY  2100      76                N/A     6/ 9   2/ 20
LANAI BUOY       2000      78                N/A     2/12   2/240
BARBERS PT 2     2100      77                N/A     4/12   3/200
PAUWELA MAUI     2100      76                N/A     7/ 8   2/350
HILO             2100      78                N/A     8/ 9   2/110
KANEOHE BAY BUOY 2100      76                N/A     5/ 8   2/360
HANALEI KAUAI    2100      76                N/A     7/10
KAHULUI HARBOR   2100   78 77   40/ 12/ 20 1016.3F
HONOLULU HARBOR  2100   79 76   60/  4/ 10 1016.7S
KILO NALU        NOT AVBL
HILO HARBOR      2100   78 77   30/  7/  7 1017.5F
MOKUOLOE         2100   79 77   90/ 11/ 15 1017.2S
NAWILIWILI       2100   76 76   90/ 10/ 12 1017.0F
WHOTS BUOY       NOT AVBL
BUOY 51028       NOT AVBL
$$

......................KEY........................................
  SKY/WX - SKY CONDITIONS/PRESENT WEATHER
  TMP    - TEMPERATURE IN FAHRENHEIT
  DWPT   - DEWPOINT IN FAHRENHEIT
  RH     - RELATIVE HUMIDITY IN PERCENT
  WIND   - DIRECTION AND SPEED /MPH FOR ISLANDS...KTS FOR BUOYS/
  PRES   - MEAN SEA LEVEL PRESSURE IN INCHES OF HG
  VSB    - VISIBILITY IN MILES
  HX     - HEAT INDEX
  WCI    - WIND CHILL INDEX
  VRB    - VARIABLE WIND DIRECTION
  N/A    - NOT AVAILABLE


USA.gov is the U.S. government's official web portal to all federal, state and local government web resources and services.